This is the latest recevied weather packets stored in our database for station/object AD5L. If no packets are shown the sender has not sent any weather packets the latest 1 day(s).
| Time | Temp. | Humidity | Pressure | Rain* | Wind** | Luminosity | Snow |
|---|---|---|---|---|---|---|---|
| 1777999403 | 24.44° C | 85% | 1008.9 hPa | 0 mm | 1.34 m/s, 222° | - | - |
| 1777998810 | 24.44° C | 86% | 1008.9 hPa | 0 mm | 1.34 m/s, 231° | - | - |
| 1777998202 | 23.89° C | 87% | 1009 hPa | 0 mm | 1.79 m/s, 139° | - | - |
| 1777997614 | 23.33° C | 87% | 1009 hPa | 0 mm | 1.34 m/s, 212° | - | - |
| 1777997025 | 23.33° C | 87% | 1008.9 hPa | 0 mm | 2.24 m/s, 146° | - | - |
| 1777996413 | 23.33° C | 88% | 1008.9 hPa | 0 mm | 1.79 m/s, 172° | - | - |
| 1777995823 | 22.78° C | 89% | 1008.9 hPa | 0 mm | 2.24 m/s, 221° | - | - |
| 1777995205 | 22.78° C | 89% | 1008.9 hPa | 0 mm | 2.24 m/s, 194° | - | - |
| 1777994625 | 22.78° C | 89% | 1008.9 hPa | 0 mm | 1.79 m/s, 217° | - | - |
| 1777994007 | 22.78° C | 90% | 1009 hPa | 0 mm | 0.89 m/s, 235° | - | - |
| 1777993427 | 22.78° C | 90% | 1008.9 hPa | 0 mm | 2.24 m/s, 212° | - | - |
| 1777992808 | 22.78° C | 90% | 1008.9 hPa | 0 mm | 0.89 m/s, 158° | - | - |
| 1777992219 | 22.22° C | 90% | 1008.9 hPa | 0 mm | 1.79 m/s, 230° | - | - |
| 1777991610 | 22.22° C | 90% | 1008.8 hPa | 0 mm | 1.34 m/s, 205° | - | - |
| 1777991020 | 22.22° C | 90% | 1008.7 hPa | 0 mm | 1.79 m/s, 117° | - | - |
| 1777990410 | 22.22° C | 91% | 1008.5 hPa | 0 mm | 2.24 m/s, 226° | - | - |
| 1777989820 | 22.22° C | 91% | 1008.4 hPa | 0 mm | 2.68 m/s, 224° | - | - |
| 1777989211 | 22.22° C | 90% | 1008.4 hPa | 0 mm | 2.24 m/s, 155° | - | - |
| 1777988622 | 22.22° C | 90% | 1008.4 hPa | 0 mm | 1.79 m/s, 199° | - | - |
| 1777988012 | 22.22° C | 91% | 1008.3 hPa | 0 mm | 2.24 m/s, 158° | - | - |
| 1777987403 | 21.67° C | 91% | 1008.3 hPa | 0 mm | 0.89 m/s, 251° | - | - |
| 1777986815 | 21.67° C | 91% | 1008.1 hPa | 0 mm | 2.24 m/s, 219° | - | - |
| 1777986206 | 21.67° C | 91% | 1008 hPa | 0 mm | 1.34 m/s, 181° | - | - |
| 1777985617 | 21.67° C | 91% | 1008 hPa | 0 mm | 0.89 m/s, 160° | - | - |
| 1777985028 | 21.67° C | 91% | 1008 hPa | 0 mm | 1.34 m/s, 140° | - | - |
* Rain latest hour (hover to see other rain measurements)
** Current wind speed in m/s (hover to see current wind gust speed)